Погода в Беной-Ведено

Россия / Чеченская Республика     42°57′15″N   46°17′04″E
темп.,
°C
ветер,
м/с
пор.,
м/с
влажн.,
%
обл.,
%
осадки,
мм/ч
давл.,
гПа
погр.,
м
4 марта, чт
чт400:00−3зюз3786100 1.3 1025639
03:00−4юз3787100 1.6 1026430
06:00−5юз2687100 0.2 1028411
09:00−1з236880 0.3 1027619
12:00+2с11620 0.0 1026702
15:00+3ссв22620 0.0 1024708
18:00−1вюв11780 0.0 102521
21:00−2ю22680 0.0 102523
5 марта, пт
пт500:00−2ю22580 0.0 102422
03:00−2ю22510 0.0 102321
06:00−2ю22480 0.0 102121
09:00+3ссв11460 0.0 1020253
12:00+6с21510 0.0 1019536
15:00+7с11510 0.0 1017512
18:00+2ююв12630 0.0 101922
21:00+2ююв22400 0.0 102123
6 марта, сб
сб600:00+2ююв33370 0.0 102124
03:00+2ю33390 0.0 102026
06:00+2ю33380 0.0 102025
09:00+8ююв11390 0.0 1018142
12:00+11с11360 0.0 1016444
15:00+11с11408 0.0 1014614
18:00+6ю22562 0.0 101523
21:00+6ю335251 0.0 101431
7 марта, вс
вс700:00+4юз2344100 0.0 101430
03:00+1зюз2481100 0.0 1016169
06:00−1сз4798100 4.2 1019503
09:00−2зсз4795100 7.6 1022731
12:00−3сз4693100 3.5 1022634
15:00−3сз3480100 5.1 1022730
18:00−5юз118475 0.4 102428
21:00−6ююв118248 0.4 102521
8 марта, пн
пн800:00−6ююв127744 0.0 102521
03:00−6ююв117822 0.0 102421
06:00−6ююв11760 0.0 102421
09:00−2ссв22710 0.0 1023388
12:000ссв237741 0.1 1020589
15:000с117269 0.4 1019728
18:00−3з1186100 0.1 101929
21:00−3ю118399 0.1 102021